H1 CPF 2 NER 2025 7 23 9 204 01 glonass135 H2 1600801 9135 41330 2025 7 23 0 0 0 2025 7 26 23 45 0 900 1 1 0 0 0 1 H9 10 0 60879 0.00000 0 -9724757.479 7110040.931 22481560.219 10 0 60879 900.00000 0 -12271862.714 6169359.185 21486830.838 10 0 60879 1800.00000 0 -14741080.482 5464857.469 20074513.004 10 0 60879 2700.00000 0 -17064066.996 4992432.926 18271864.449 10 0 60879 3600.00000 0 -19176001.220 4735723.367 16113768.938 10 0 60879 4500.00000 0 -21018133.954 4666980.540 13642070.050 10 0 60879 5400.00000 0 -22540100.910 4748436.856 10904765.127 10 0 60879 6300.00000 0 -23701902.101 4934108.098 7955074.322 10 0 60879 7200.00000 0 -24475463.428 5171955.661 4850402.614 10 0 60879 8100.00000 0 -24845713.775 5406316.117 1651215.279 10 0 60879 9000.00000 0 -24811131.349 5580493.998 -1580150.549 10 0 60879 9900.00000 0 -24383735.653 5639406.326 -4780713.803 10 0 60879 10800.00000 0 -23588525.247 5532164.898 -7888091.487 10 0 60879 11700.00000 0 -22462385.342 5214484.890 -10841728.923 10 0 60879 12600.00000 0 -21052512.103 4650815.787 -13584092.614 10 0 60879 13500.00000 0 -19414421.216 3816102.738 -16061801.103 10 0 60879 14400.00000 0 -17609626.017 2697102.439 -18226670.788 10 0 60879 15300.00000 0 -15703084.286 1293197.024 -20036655.672 10 0 60879 16200.00000 0 -13760522.271 -383328.939 -21456662.691 10 0 60879 17100.00000 0 -11845749.137 -2307560.251 -22459227.119 10 0 60879 18000.00000 0 -10018074.845 -4442760.205 -23025035.644 10 0 60879 18900.00000 0 -8329939.387 -6741682.936 -23143288.061 10 0 60879 19800.00000 0 -6824851.759 -9148333.866 -22811891.765 10 0 60879 20700.00000 0 -5535723.503 -11600104.516 -22037486.567 10 0 60879 21600.00000 0 -4483664.630 -14030192.642 -20835300.591 10 0 60879 22500.00000 0 -3677290.076 -16370207.058 -19228841.107 10 0 60879 23400.00000 0 -3112563.405 -18552849.089 -17249427.115 10 0 60879 24300.00000 0 -2773181.934 -20514559.790 -14935573.435 10 0 60879 25200.00000 0 -2631485.033 -22198023.704 -12332238.486 10 0 60879 26100.00000 0 -2649845.647 -23554425.908 -9489950.530 10 0 60879 27000.00000 0 -2782485.186 -24545369.730 -6463829.242 10 0 60879 27900.00000 0 -2977634.502 -25144376.261 -3312521.248 10 0 60879 28800.00000 0 -3179949.400 -25337904.371 -97069.930 10 0 60879 29700.00000 0 -3333078.852 -25125849.776 3120259.080 10 0 60879 30600.00000 0 -3382277.799 -24521503.135 6277174.563 10 0 60879 31500.00000 0 -3276954.764 -23550969.491 9312555.972 10 0 60879 32400.00000 0 -2973047.187 -22252073.460 12167626.866 10 0 60879 33300.00000 0 -2435124.639 -20672795.808 14787083.611 10 0 60879 34200.00000 0 -1638131.328 -18869306.230 17120158.243 10 0 60879 35100.00000 0 -568694.128 -16903673.702 19121595.723 10 0 60879 36000.00000 0 774059.702 -14841348.923 20752527.401 10 0 60879 36900.00000 0 2378210.861 -12748522.766 21981224.279 10 0 60879 37800.00000 0 4219296.519 -10689469.737 22783715.850 10 0 60879 38700.00000 0 6261090.888 -8723986.114 23144262.545 10 0 60879 39600.00000 0 8456887.769 -6905028.754 23055672.322 10 0 60879 40500.00000 0 10751234.095 -5276652.459 22519454.577 10 0 60879 41400.00000 0 13082044.624 -3872331.688 21545807.355 10 0 60879 42300.00000 0 15383011.636 -2713736.810 20153436.824 10 0 60879 43200.00000 0 17586210.756 -1810016.357 18369210.997 10 0 60879 44100.00000 0 19624795.094 -1157615.816 16227652.897 10 0 60879 45000.00000 0 21435665.491 -740641.071 13770281.592 10 0 60879 45900.00000 0 22962004.872 -531751.599 11044812.734 10 0 60879 46800.00000 0 24155569.757 -493545.930 8104233.366 10 0 60879 47700.00000 0 24978641.593 -580380.702 5005768.744 10 0 60879 48600.00000 0 25405554.628 -740545.748 1809761.518 10 0 60879 49500.00000 0 25423734.743 -918702.089 -1421514.141 10 0 60879 50400.00000 0 25034204.478 -1058478.005 -4625079.156 10 0 60879 51300.00000 0 24251532.302 -1105111.375 -7738491.490 10 0 60879 52200.00000 0 23103228.104 -1008024.254 -10701077.605 10 0 60879 53100.00000 0 21628610.712 -723218.625 -13455127.778 10 0 60879 54000.00000 0 19877195.931 -215390.021 -15947030.611 10 0 60879 54900.00000 0 17906674.010 540331.934 -18128323.551 10 0 60879 55800.00000 0 15780562.869 1557090.746 -19956638.355 10 0 60879 56700.00000 0 13565636.794 2835513.311 -21396522.931 10 0 60879 57600.00000 0 11329239.391 4363456.816 -22420123.958 10 0 60879 58500.00000 0 9136593.893 6116302.907 -23007717.686 10 0 60879 59400.00000 0 7048223.351 8057786.563 -23148079.704 10 0 60879 60300.00000 0 5117587.900 10141324.640 -22838687.726 10 0 60879 61200.00000 0 3389036.650 12311788.147 -22085754.732 10 0 60879 62100.00000 0 1896157.963 14507644.018 -20904093.082 10 0 60879 63000.00000 0 660594.870 16663376.968 -19316813.303 10 0 60879 63900.00000 0 -308627.281 18712090.569 -17354864.261 10 0 60879 64800.00000 0 -1015235.319 20588179.583 -15056424.255 10 0 60879 65700.00000 0 -1475301.705 22229962.749 -12466155.137 10 0 60879 66600.00000 0 -1716316.149 23582167.226 -9634334.166 10 0 60879 67500.00000 0 -1775776.137 24598161.958 -6615880.252 10 0 60879 68400.00000 0 -1699357.027 25241847.700 -3469293.210 10 0 60879 69300.00000 0 -1538739.560 25489125.963 -255526.284 10 0 60879 70200.00000 0 -1349186.769 25328886.315 2963186.735 10 0 60879 71100.00000 0 -1186972.434 24763471.552 6124527.644 10 0 60879 72000.00000 0 -1106769.288 23808601.744 9167290.650 10 0 60879 72900.00000 0 -1159106.724 22492760.390 12032557.458 10 0 60879 73800.00000 0 -1388004.807 20856068.135 14664828.660 10 0 60879 74700.00000 0 -1828884.070 18948690.485 17013090.271 10 0 60879 75600.00000 0 -2506839.172 16828845.093 19031795.608 10 0 60879 76500.00000 0 -3435349.514 14560490.555 20681744.175 10 0 60879 77400.00000 0 -4615481.970 12210791.752 21930841.136 10 0 60879 78300.00000 0 -6035620.673 9847465.927 22754722.972 10 0 60879 79200.00000 0 -7671737.106 7536118.689 23137237.306 10 0 60879 80100.00000 0 -9488191.488 5337679.728 23070767.268 10 0 60879 81000.00000 0 -11439034.399 3306044.114 22556393.470 10 0 60879 81900.00000 0 -13469756.715 1486016.860 21603889.452 10 0 60879 82800.00000 0 -15519416.972 -88353.742 20231549.378 10 0 60879 83700.00000 0 -17523059.093 -1394984.414 18465849.851 10 0 60879 84600.00000 0 -19414320.709 -2424455.982 16340950.872 10 0 60879 85500.00000 0 -21128123.538 -3180173.625 13898044.178 10 0 60880 0.00000 0 -22603333.006 -3677981.136 11184560.720 10 0 60880 900.00000 0 -23785275.673 -3945245.512 8253250.356 10 0 60880 1800.00000 0 -24628005.701 -4019449.950 5161155.056 10 0 60880 2700.00000 0 -25096226.273 -3946356.049 1968490.989 10 0 60880 3600.00000 0 -25166781.535 -3777813.190 -1262534.468 10 0 60880 4500.00000 0 -24829655.641 -3569309.502 -4468947.925 10 0 60880 5400.00000 0 -24088435.521 -3377369.835 -7588251.814 10 0 60880 6300.00000 0 -22960217.213 -3256912.961 -10559657.001 10 0 60880 7200.00000 0 -21474959.505 -3258681.983 -13325280.520 10 0 60880 8100.00000 0 -19674312.461 -3426858.697 -15831283.642 10 0 60880 9000.00000 0 -17609970.789 -3796964.489 -18028927.075 10 0 60880 9900.00000 0 -15341622.304 -4394137.785 -19875522.020 10 0 60880 10800.00000 0 -12934578.602 -5231861.579 -21335258.493 10 0 60880 11700.00000 0 -10457188.179 -6311195.101 -22379895.077 10 0 60880 12600.00000 0 -7978140.922 -7620541.933 -22989297.443 10 0 60880 13500.00000 0 -5563776.788 -9135964.068 -23151816.208 10 0 60880 14400.00000 0 -3275510.663 -10822028.269 -22864498.061 10 0 60880 15300.00000 0 -1167479.919 -12633148.740 -22133127.300 10 0 60880 16200.00000 0 715488.738 -14515369.500 -20972098.259 10 0 60880 17100.00000 0 2339510.340 -16408511.637 -19404122.142 10 0 60880 18000.00000 0 3682804.876 -18248595.614 -17459774.858 10 0 60880 18900.00000 0 4736346.653 -19970437.637 -15176895.206 10 0 60880 19800.00000 0 5503975.160 -21510312.008 -12599845.458 10 0 60880 20700.00000 0 6001965.251 -22808568.934 -9778648.834 10 0 60880 21600.00000 0 6258076.735 -23812099.115 -6768020.500 10 0 60880 22500.00000 0 6310124.998 -24476543.049 -3626310.644 10 0 60880 23400.00000 0 6204134.012 -24768153.311 -414379.728 10 0 60880 24300.00000 0 5992150.239 -24665232.815 2805572.750 10 0 60880 25200.00000 0 5729809.837 -24159089.593 5971203.823 10 0 60880 26100.00000 0 5473761.630 -23254468.354 9021224.443 10 0 60880 27000.00000 0 5279054.196 -21969440.853 11896576.212 10 0 60880 27900.00000 0 5196596.740 -20334759.338 14541565.460 10 0 60880 28800.00000 0 5270800.380 -18392699.397 16904933.464 10 0 60880 29700.00000 0 5537498.934 -16195439.504 18940842.916 10 0 60880 30600.00000 0 6022236.785 -13803043.509 20609762.259 10 0 60880 31500.00000 0 6738996.315 -11281128.660 21879231.330 10 0 60880 32400.00000 0 7689419.341 -8698314.632 22724493.858 10 0 60880 33300.00000 0 8862556.691 -6123558.065 23128984.663 10 0 60880 34200.00000 0 10235158.297 -3623482.123 23084661.806 10 0 60880 35100.00000 0 11772493.847 -1259810.876 22592176.661 10 0 60880 36000.00000 0 13429671.955 912985.590 21660877.590 10 0 60880 36900.00000 0 15153404.865 2849737.785 20308645.893 10 0 60880 37800.00000 0 16884146.776 4516230.010 18561565.722 10 0 60880 38700.00000 0 18558517.754 5890390.996 16453432.811 10 0 60880 39600.00000 0 20111912.534 6962971.876 14025110.137 10 0 60880 40500.00000 0 21481185.028 7737682.737 11323741.801 10 0 60880 41400.00000 0 22607295.397 8230781.779 8401839.583 10 0 60880 42300.00000 0 23437807.385 8470134.350 5316259.614 10 0 60880 43200.00000 0 23929129.402 8493781.890 2127089.280 10 0 60880 44100.00000 0 24048403.290 8348082.006 -1103533.305 10 0 60880 45000.00000 0 23774959.480 8085499.514 -4312643.016 10 0 60880 45900.00000 0 23101275.683 7762143.578 -7437689.354 10 0 60880 46800.00000 0 22033397.556 7435157.068 -10417770.143 10 0 60880 47700.00000 0 20590802.939 7160070.737 -13194831.587 10 0 60880 48600.00000 0 18805715.196 6988236.149 -15714809.877 10 0 60880 49500.00000 0 16721894.836 6964447.725 -17928691.008 10 0 60880 50400.00000 0 14392960.825 7124855.813 -19793467.471 10 0 60880 51300.00000 0 11880312.856 7495259.804 -21272973.029 10 0 60880 52200.00000 0 9250742.450 8089853.756 -22338579.640 10 0 60880 53100.00000 0 6573833.480 8910477.333 -22969743.668 10 0 60880 54000.00000 0 3919261.031 9946403.214 -23154391.820 10 0 60880 54900.00000 0 1354101.111 11174669.278 -22889140.535 10 0 60880 55800.00000 0 -1059737.280 12560940.883 -22179345.870 10 0 60880 56700.00000 0 -3267851.997 14060866.385 -21038984.173 10 0 60880 57600.00000 0 -5225363.758 15621868.515 -19490366.925 10 0 60880 58500.00000 0 -6898526.438 17185296.239 -17563696.212 10 0 60880 59400.00000 0 -8265866.884 18688846.832 -15296470.019 10 0 60880 60300.00000 0 -9318809.261 20069157.052 -12732749.286 10 0 60880 61200.00000 0 -10061760.295 21264455.243 -9922301.080 10 0 60880 62100.00000 0 -10511654.098 22217163.946 -6919634.422 10 0 60880 63000.00000 0 -10696977.691 22876344.705 -3782947.190 10 0 60880 63900.00000 0 -10656319.610 23199883.295 -573004.188 10 0 60880 64800.00000 0 -10436503.753 23156324.610 2648032.353 10 0 60880 65700.00000 0 -10090387.589 22726280.814 5817797.758 10 0 60880 66600.00000 0 -9674417.599 21903354.097 8874922.790 10 0 60880 67500.00000 0 -9246044.746 20694535.398 11760211.971 10 0 60880 68400.00000 0 -8861108.440 19120061.986 14417780.302 10 0 60880 69300.00000 0 -8571298.695 17212739.142 16796127.125 10 0 60880 70200.00000 0 -8421802.835 15016753.178 18849127.148 10 0 60880 71100.00000 0 -8449235.526 12586023.844 20536920.180 10 0 60880 72000.00000 0 -8679939.208 9982163.126 21826682.915 10 0 60880 72900.00000 0 -9128726.805 7272123.568 22693268.219 10 0 60880 73800.00000 0 -9798120.428 4525632.090 23119699.639 10 0 60880 74700.00000 0 -10678119.395 1812514.263 23097511.286 10 0 60880 75600.00000 0 -11746509.035 -799981.235 22626925.927 10 0 60880 76500.00000 0 -12969699.351 -3249747.958 21716866.845 10 0 60880 77400.00000 0 -14304060.431 -5482170.878 20384801.982 10 0 60880 78300.00000 0 -15697700.555 -7452161.980 18656421.925 10 0 60880 79200.00000 0 -17092614.040 -9125797.453 16565156.433 10 0 60880 80100.00000 0 -18427109.740 -10481487.821 14151537.428 10 0 60880 81000.00000 0 -19638418.703 -11510631.702 11462419.612 10 0 60880 81900.00000 0 -20665371.147 -12217725.414 8550072.981 10 0 60880 82800.00000 0 -21451029.267 -12619923.622 5471164.527 10 0 60880 83700.00000 0 -21945163.614 -12746069.663 2285649.113 10 0 60880 84600.00000 0 -22106466.974 -12635236.960 -944408.237 10 0 60880 85500.00000 0 -21904410.450 -12334844.104 -4156054.510 10 0 60881 0.00000 0 -21320661.773 -11898424.740 -7286689.781 10 0 60881 900.00000 0 -20350004.034 -11383148.082 -10275303.035 10 0 60881 1800.00000 0 -19000715.854 -10847197.532 -13063672.803 10 0 60881 2700.00000 0 -17294395.270 -10347119.489 -15597513.354 10 0 60881 3600.00000 0 -15265235.263 -9935256.821 -17827538.763 10 0 60881 4500.00000 0 -12958781.385 -9657376.725 -19710425.137 10 0 60881 5400.00000 0 -10430224.202 -9550594.204 -21209651.762 10 0 60881 6300.00000 0 -7742298.716 -9641679.205 -22296205.116 10 0 60881 7200.00000 0 -4962879.275 -9945818.793 -22949132.732 10 0 60881 8100.00000 0 -2162370.770 -10465885.962 -23155937.204 10 0 60881 9000.00000 0 588995.077 -11192245.049 -22912803.893 10 0 60881 9900.00000 0 3223846.098 -12103100.953 -22224659.218 10 0 60881 10800.00000 0 5680227.830 -13165376.437 -21105059.655 10 0 60881 11700.00000 0 7903928.414 -14336079.804 -19575914.686 10 0 60881 12600.00000 0 9850475.237 -15564104.769 -17667049.954 10 0 60881 13500.00000 0 11486722.378 -16792386.610 -15415619.756 10 0 60881 14400.00000 0 12791965.071 -17960324.008 -12865380.621 10 0 60881 15300.00000 0 13758536.999 -19006365.003 -10065840.217 10 0 60881 16200.00000 0 14391867.918 -19870649.101 -7071298.066 10 0 60881 17100.00000 0 14710001.166 -20497595.036 -3939796.367 10 0 60881 18000.00000 0 14742593.053 -20838326.191 -732000.937 10 0 60881 18900.00000 0 14529437.521 -20852832.578 2489966.477 10 0 60881 19800.00000 0 14118578.896 -20511779.117 5663722.488 10 0 60881 20700.00000 0 13564092.499 -19797884.668 8727820.369 10 0 60881 21600.00000 0 12923626.495 -18706813.962 11622929.919 10 0 60881 22500.00000 0 12255808.083 -17247544.692 14292976.782 10 0 60881 23400.00000 0 11617622.670 -15442193.681 16686219.927 10 0 60881 24300.00000 0 11061875.661 -13325308.224 18756247.228 10 0 60881 25200.00000 0 10634843.055 -10942650.666 20462870.605 10 0 60881 26100.00000 0 10374209.274 -8349525.096 21772903.972 10 0 60881 27000.00000 0 10307378.805 -5608713.837 22660809.331 10 0 60881 27900.00000 0 10450232.933 -2788107.460 23109198.632 10 0 60881 28800.00000 0 10806384.578 41875.104 23109181.414 10 0 60881 29700.00000 0 11366963.699 2810970.980 22660550.961 10 0 60881 30600.00000 0 12110943.833 5451752.227 21771804.374 10 0 60881 31500.00000 0 13005997.821 7902188.849 20459994.942 10 0 60881 32400.00000 0 14009848.524 10107989.922 18750418.230 10 0 60881 33300.00000 0 15072059.406 12024625.538 16676136.399 10 0 60881 34200.00000 0 16136190.884 13618944.967 14277348.556 10 0 60881 35100.00000 0 17142232.446 14870323.032 11600618.090 10 0 60881 36000.00000 0 18029208.158 15771286.196 8697971.148 10 0 60881 36900.00000 0 18737845.186 16327591.646 5625883.385 10 0 60881 37800.00000 0 19213191.609 16557755.912 2444174.818 10 0 60881 38700.00000 0 19407071.391 16492053.098 -785165.028 10 0 60881 39600.00000 0 19280270.986 16171025.621 -3999197.673 10 0 60881 40500.00000 0 18804363.224 15643571.489 -7135276.696 10 0 60881 41400.00000 0 17963089.672 14964690.462 -10132283.386 10 0 60881 42300.00000 0 16753241.597 14192986.186 -12931831.279 10 0 60881 43200.00000 0 15185001.289 13388031.794 -15479414.624 10 0 60881 44100.00000 0 13281728.751 12607712.110 -17725477.294 10 0 60881 45000.00000 0 11079202.569 11905656.302 -19626380.532 10 0 60881 45900.00000 0 8624347.015 11328870.403 -21145250.519 10 0 60881 46800.00000 0 5973499.161 10915670.160 -22252689.482 10 0 60881 47700.00000 0 3190289.013 10694001.312 -22927337.230 10 0 60881 48600.00000 0 343221.579 10680217.494 -23156273.187 10 0 60881 49500.00000 0 -2496938.138 10878366.246 -22935252.366 10 0 60881 50400.00000 0 -5259868.486 11280011.900 -22268771.994 10 0 60881 51300.00000 0 -7878370.992 11864601.431 -21169968.772 10 0 60881 52200.00000 0 -10290916.300 12600356.567 -19660349.853 10 0 60881 53100.00000 0 -12443951.789 13445653.515 -17769363.703 10 0 60881 54000.00000 0 -14293876.719 14350831.467 -15533819.775 10 0 60881 54900.00000 0 -15808604.766 15260353.296 -12997168.638 10 0 60881 55800.00000 0 -16968651.062 16115227.511 -10208656.709 10 0 60881 56700.00000 0 -17767700.580 16855589.697 -7222371.898 10 0 60881 57600.00000 0 -18212636.125 17423335.212 -4096198.384 10 0 60881 58500.00000 0 -18323026.648 17764693.012 -890700.525 10 0 60881 59400.00000 0 -18130098.723 17832632.817 2332043.010 10 0 60881 60300.00000 0 -17675235.437 17589004.964 5509632.813 10 0 60881 61200.00000 0 -17008066.330 17006323.439 8580547.447 10 0 60881 62100.00000 0 -16184228.762 16069117.161 11485324.809 10 0 60881 63000.00000 0 -15262894.601 14774792.569 14167704.020 10 0 60881 63900.00000 0 -14304165.682 13133970.690 16575706.472 10 0 60881 64800.00000 0 -13366446.806 11170283.460 18662635.913 10 0 60881 65700.00000 0 -12503905.912 8919636.300 20387978.926 10 0 60881 66600.00000 0 -11764127.404 6428965.845 21718188.985 10 0 60881 67500.00000 0 -11186056.726 3754542.494 22627339.293 10 0 60881 68400.00000 0 -10798322.291 959886.121 23097631.933 10 0 60881 69300.00000 0 -10618005.442 -1886620.532 23119753.224 10 0 60881 70200.00000 0 -10649910.704 -4714323.738 22693067.876 10 0 60881 71100.00000 0 -10886367.977 -7452989.971 21825647.239 10 0 60881 72000.00000 0 -11307576.294 -10035485.895 20534129.864 10 0 60881 72900.00000 0 -11882476.128 -12400336.551 18843415.668 10 0 60881 73800.00000 0 -12570114.993 -14494055.618 16786198.048 10 0 60881 74700.00000 0 -13321450.048 -16273150.476 14402341.593 10 0 60881 75600.00000 0 -14081512.577 -17705717.922 11738116.205 10 0 60881 76500.00000 0 -14791843.341 -18772563.161 8845301.587 10 0 60881 77400.00000 0 -15393095.683 -19467794.506 5780179.099 10 0 60881 78300.00000 0 -15827695.507 -19798868.325 2602430.705 10 0 60881 79200.00000 0 -16042444.268 -19786082.221 -626032.977 10 0 60881 80100.00000 0 -15990953.080 -19461538.044 -3842291.543 10 0 60881 81000.00000 0 -15635803.009 -18867619.242 -6983655.406 10 0 60881 81900.00000 0 -14950338.242 -18055048.070 -9988902.341 10 0 60881 82800.00000 0 -13920014.558 -17080606.231 -12799484.156 10 0 60881 83700.00000 0 -12543244.774 -16004617.056 -15360678.501 10 0 60881 84600.00000 0 -10831704.482 -14888297.269 -17622662.216 10 0 60881 85500.00000 0 -8810084.701 -13791091.733 -19541484.519 10 0 60882 0.00000 0 -6515301.894 -12768104.870 -21079920.739 10 0 60882 900.00000 0 -3995197.387 -11867737.162 -22208190.986 10 0 60882 1800.00000 0 -1306784.089 -11129627.716 -22904528.435 10 0 60882 2700.00000 0 1485889.929 -10582987.156 -23155589.970 10 0 60882 3600.00000 0 4314168.689 -10245391.310 -22956700.286 10 0 60882 4500.00000 0 7107406.424 -10122084.432 -22311926.886 10 0 60882 5400.00000 0 9795667.825 -10205819.675 -21233985.651 10 0 60882 6300.00000 0 12312398.850 -10477241.806 -19743979.922 10 0 60882 7200.00000 0 14596958.171 -10905794.475 -17870979.069 10 0 60882 8100.00000 0 16596905.471 -11451112.505 -15651445.390 10 0 60882 9000.00000 0 18269953.134 -12064839.636 -13128520.810 10 0 60882 9900.00000 0 19585502.000 -12692794.587 -10351187.445 10 0 60882 10800.00000 0 20525699.163 -13277394.023 -7373318.212 10 0 60882 11700.00000 0 21085975.598 -13760230.452 -4252635.674 10 0 60882 12600.00000 0 21275042.840 -14084696.767 -1049598.965 10 0 60882 13500.00000 0 21114350.386 -14198547.337 2173760.132 10 0 60882 14400.00000 0 20637027.740 -14056288.376 5355029.870 10 0 60882 15300.00000 0 19886356.119 -13621297.294 8432617.545 10 0 60882 16200.00000 0 18913834.262 -12867582.095 11346932.257 10 0 60882 17100.00000 0 17776919.375 -11781106.737 14041529.269 10 0 60882 18000.00000 0 16536537.595 -10360626.266 16464194.579 10 0 60882 18900.00000 0 15254467.728 -8617995.733 18567949.478 10 0 60882 19800.00000 0 13990707.164 -6577938.571 20311956.401 10 0 60882 20700.00000 0 12800929.602 -4277282.243 21662309.084 10 0 60882 21600.00000 0 11734140.361 -1763690.933 22592692.206 10 0 60882 22500.00000 0 10830627.051 906054.327 23084897.841 10 0 60882 23400.00000 0 10120291.253 3668158.879 23129188.572 10 0 60882 24300.00000 0 9621431.293 6454215.870 22724499.678 10 0 60882 25200.00000 0 9340027.626 9193808.109 21878475.584 10 0 60882 26100.00000 0 9269561.691 11817203.790 20607338.658 10 0 60882 27000.00000 0 9391376.835 14258035.091 18935591.473 10 0 60882 27900.00000 0 9675567.293 16455848.741 16895556.753 10 0 60882 28800.00000 0 10082358.811 18358422.237 14526762.478 10 0 60882 29700.00000 0 10563923.524 19923748.666 11875182.793 10 0 60882 30600.00000 0 11066552.862 21121606.390 8992348.535 10 0 60882 31500.00000 0 11533096.549 21934646.977 5934344.232 10 0 60882 32400.00000 0 11905563.853 22358954.947 2760711.155 10 0 60882 33300.00000 0 12127775.792 22404055.246 -466721.662 10 0 60882 34200.00000 0 12147954.343 22092367.984 -3685054.531 10 0 60882 35100.00000 0 11921137.073 21458133.736 -6831557.241 10 0 60882 36000.00000 0 11411312.977 20545855.551 -9844906.414 10 0 60882 36900.00000 0 10593187.189 19408324.666 -12666394.263 10 0 60882 37800.00000 0 9453498.327 18104314.768 -15241083.719 10 0 60882 38700.00000 0 7991831.539 16696043.763 -17518886.213 10 0 60882 39600.00000 0 6220892.126 15246511.635 -19455540.325 10 0 60882 40500.00000 0 4166227.784 13816827.892 -21013471.978 10 0 60882 41400.00000 0 1865411.042 12463641.906 -22162519.632 10 0 60882 42300.00000 0 -633283.686 11236784.536 -22880511.014 10 0 60882 43200.00000 0 -3272652.775 10177219.785 -23153681.175 10 0 60882 44100.00000 0 -5988711.588 9315391.550 -22976924.977 10 0 60882 45000.00000 0 -8713128.448 8670033.467 -22353880.410 10 0 60882 45900.00000 0 -11375843.244 8247489.926 -21296842.411 10 0 60882 46800.00000 0 -13907762.157 8041574.802 -19826510.000 10 0 60882 47700.00000 0 -16243417.256 8033971.782 -17971572.558 10 0 60882 48600.00000 0 -18323481.416 8195157.616 -15768143.950 10 0 60882 49500.00000 0 -20097035.455 8485807.943 -13259055.861 10 0 60882 50400.00000 0 -21523494.674 8858625.381 -10493024.253 10 0 60882 51300.00000 0 -22574116.195 9260512.156 -7523705.009 10 0 60882 52200.00000 0 -23233026.014 9634995.460 -4408656.875 10 0 60882 53100.00000 0 -23497724.378 9924803.260 -1208231.431 10 0 60882 54000.00000 0 -23379049.823 10074482.283 2015588.829 10 0 60882 54900.00000 0 -22900604.500 10032948.202 5200382.353 10 0 60882 55800.00000 0 -22097665.615 9755860.995 8284487.793 10 0 60882 56700.00000 0 -21015628.946 9207725.715 11208188.122 10 0 60882 57600.00000 0 -19708049.577 8363630.244 13914857.461 10 0 60882 58500.00000 0 -18234361.608 7210546.684 16352049.106 10 0 60882 59400.00000 0 -16657371.674 5748141.013 18472504.501 10 0 60882 60300.00000 0 -15040630.338 3989055.804 20235064.364 10 0 60882 61200.00000 0 -13445790.427 1958652.547 21605464.902 10 0 60882 62100.00000 0 -11930061.880 -305777.759 22557004.156 10 0 60882 63000.00000 0 -10543868.741 -2756305.171 23071065.745 10 0 60882 63900.00000 0 -9328805.754 -5336101.223 23137489.685 10 0 60882 64800.00000 0 -8315979.763 -7981559.233 22754782.591 10 0 60882 65700.00000 0 -7524805.392 -10624708.553 21930162.320 10 0 60882 66600.00000 0 -6962305.873 -13195824.183 20679434.984 10 0 60882 67500.00000 0 -6622948.972 -15626124.587 19026705.309 10 0 60882 68400.00000 0 -6489025.687 -17850446.172 17003924.410 10 0 60882 69300.00000 0 -6531556.620 -19809783.139 14650282.292 10 0 60882 70200.00000 0 -6711688.485 -21453586.393 12011455.587 10 0 60882 71100.00000 0 -6982522.212 -22741724.621 9138724.147 10 0 60882 72000.00000 0 -7291295.370 -23646024.413 6087973.241 10 0 60882 72900.00000 0 -7581826.032 -24151323.726 2918600.769 10 0 60882 73800.00000 0 -7797113.572 -24255993.525 -307648.700 10 0 60882 74700.00000 0 -7881984.708 -23971905.011 -3527899.245 10 0 60882 75600.00000 0 -7785670.796 -23323843.679 -6679383.214 10 0 60882 76500.00000 0 -7464205.190 -22348395.226 -9700679.344 10 0 60882 77400.00000 0 -6882537.088 -21092351.140 -12532923.566 10 0 60882 78300.00000 0 -6016270.622 -19610702.424 -15120967.365 10 0 60882 79200.00000 0 -4852954.155 -17964307.484 -17414459.920 10 0 60882 80100.00000 0 -3392864.279 -16217333.931 -19368832.110 10 0 60882 81000.00000 0 -1649250.796 -14434583.315 -20946162.934 10 0 60882 81900.00000 0 351967.909 -12678812.228 -22115911.672 10 0 60882 82800.00000 0 2573046.301 -11008162.781 -22855502.162 10 0 60882 83700.00000 0 4965754.486 -9473810.131 -23150748.819 10 0 60882 84600.00000 0 7473165.961 -8117924.920 -22996117.357 10 0 60882 85500.00000 0 10031815.492 -6972034.669 -22394816.442 99